Time,TemperatureF,DewpointF,PressureIn,WindDirection,WindDirectionDegrees,WindSpeedMPH,WindSpeedGustMPH,Humidity,HourlyPrecipIn,Conditions,Clouds,dailyrainin,SoftwareType,DateUTC
2013-04-10 00:03:00,70.0,61.0,29.90,South,183,2.0,6.0,73,0.00,,,0.00,,2013-04-10 04:03:00,
2013-04-10 00:13:00,70.0,61.0,29.90,South,183,2.0,6.0,73,0.00,,,0.00,,2013-04-10 04:13:00,
2013-04-10 00:23:00,70.0,61.0,29.90,South,183,2.0,6.0,73,0.00,,,0.00,,2013-04-10 04:23:00,
2013-04-10 00:33:00,70.0,61.0,29.90,South,183,2.0,6.0,73,0.00,,,0.00,,2013-04-10 04:33:00,
2013-04-10 00:53:00,69.0,61.0,29.89,South,171,0.0,6.0,75,0.00,,,0.00,,2013-04-10 04:53:00,
2013-04-10 01:02:00,69.0,61.0,29.89,South,176,1.0,6.0,76,0.00,,,0.00,,2013-04-10 05:02:00,
2013-04-10 01:13:00,69.0,61.0,29.89,South,176,1.0,6.0,76,0.00,,,0.00,,2013-04-10 05:13:00,
2013-04-10 01:23:00,69.0,61.0,29.89,South,176,1.0,6.0,76,0.00,,,0.00,,2013-04-10 05:23:00,
2013-04-10 01:33:00,68.0,61.0,29.89,SSE,166,0.0,2.0,77,0.00,,,0.00,,2013-04-10 05:33:00,
2013-04-10 01:42:00,68.0,61.0,29.89,SSE,166,0.0,2.0,77,0.00,,,0.00,,2013-04-10 05:42:00,
2013-04-10 01:53:00,68.0,61.0,29.88,SSE,165,1.0,3.0,78,0.00,,,0.00,,2013-04-10 05:53:00,
2013-04-10 02:03:00,67.0,60.0,29.88,SSE,166,0.0,3.0,79,0.00,,,0.00,,2013-04-10 06:03:00,
2013-04-10 02:12:00,66.0,60.0,29.88,SSE,165,0.0,3.0,81,0.00,,,0.00,,2013-04-10 06:12:00,
2013-04-10 02:22:00,66.0,60.0,29.88,SSE,165,0.0,3.0,81,0.00,,,0.00,,2013-04-10 06:22:00,
2013-04-10 02:32:00,66.0,60.0,29.87,SSE,166,0.0,0.0,81,0.00,,,0.00,,2013-04-10 06:32:00,
2013-04-10 02:42:00,66.0,60.0,29.87,SSE,166,0.0,0.0,81,0.00,,,0.00,,2013-04-10 06:42:00,
2013-04-10 02:52:00,66.0,60.0,29.87,SSE,166,0.0,0.0,81,0.00,,,0.00,,2013-04-10 06:52:00,
2013-04-10 03:02:00,65.0,60.0,29.87,SSE,166,0.0,0.0,83,0.00,,,0.00,,2013-04-10 07:02:00,
2013-04-10 03:12:00,65.0,60.0,29.87,SSE,166,0.0,0.0,83,0.00,,,0.00,,2013-04-10 07:12:00,
2013-04-10 03:22:00,65.0,60.0,29.87,SSE,166,0.0,0.0,83,0.00,,,0.00,,2013-04-10 07:22:00,
2013-04-10 03:32:00,65.0,60.0,29.87,SSE,166,0.0,0.0,83,0.00,,,0.00,,2013-04-10 07:32:00,
2013-04-10 03:42:00,65.0,60.0,29.87,SSE,166,0.0,0.0,83,0.00,,,0.00,,2013-04-10 07:42:00,
2013-04-10 03:52:00,65.0,60.0,29.86,SSE,166,0.0,0.0,83,0.00,,,0.00,,2013-04-10 07:52:00,
2013-04-10 04:02:00,65.0,60.0,29.86,SSE,166,0.0,0.0,84,0.00,,,0.00,,2013-04-10 08:02:00,
2013-04-10 04:12:00,65.0,60.0,29.86,SSE,166,0.0,0.0,84,0.00,,,0.00,,2013-04-10 08:12:00,
2013-04-10 04:22:00,65.0,60.0,29.86,SSE,166,0.0,0.0,84,0.00,,,0.00,,2013-04-10 08:22:00,
2013-04-10 04:32:00,64.0,60.0,29.86,SE,137,0.0,3.0,86,0.00,,,0.00,,2013-04-10 08:32:00,
2013-04-10 04:43:00,64.0,60.0,29.86,SE,137,0.0,3.0,86,0.00,,,0.00,,2013-04-10 08:43:00,
2013-04-10 04:52:00,64.0,60.0,29.86,SE,137,0.0,3.0,86,0.00,,,0.00,,2013-04-10 08:52:00,
2013-04-10 05:02:00,64.0,60.0,29.87,SE,137,0.0,3.0,87,0.00,,,0.00,,2013-04-10 09:02:00,
2013-04-10 05:12:00,63.0,59.0,29.87,SE,138,0.0,3.0,87,0.00,,,0.00,,2013-04-10 09:12:00,
2013-04-10 05:22:00,63.0,59.0,29.87,SE,138,0.0,3.0,87,0.00,,,0.00,,2013-04-10 09:22:00,
2013-04-10 05:32:00,63.0,59.0,29.87,SE,138,0.0,2.0,88,0.00,,,0.00,,2013-04-10 09:32:00,
2013-04-10 05:43:00,63.0,59.0,29.87,SE,138,0.0,2.0,88,0.00,,,0.00,,2013-04-10 09:43:00,
2013-04-10 05:52:00,63.0,60.0,29.87,SE,137,1.0,2.0,89,0.00,,,0.00,,2013-04-10 09:52:00,
2013-04-10 06:03:00,64.0,60.0,29.87,South,181,0.0,2.0,88,0.00,,,0.00,,2013-04-10 10:03:00,
2013-04-10 06:12:00,64.0,60.0,29.87,South,181,0.0,2.0,88,0.00,,,0.00,,2013-04-10 10:12:00,
2013-04-10 06:23:00,64.0,60.0,29.87,South,181,0.0,2.0,88,0.00,,,0.00,,2013-04-10 10:23:00,
2013-04-10 06:33:00,65.0,61.0,29.86,South,169,0.0,5.0,86,0.00,,,0.00,,2013-04-10 10:33:00,
2013-04-10 06:42:00,65.0,61.0,29.86,South,169,0.0,5.0,86,0.00,,,0.00,,2013-04-10 10:42:00,
2013-04-10 06:52:00,65.0,61.0,29.86,South,169,0.0,5.0,86,0.00,,,0.00,,2013-04-10 10:52:00,
2013-04-10 07:02:00,65.0,61.0,29.86,South,182,4.0,5.0,87,0.00,,,0.00,,2013-04-10 11:02:00,
2013-04-10 07:12:00,65.0,61.0,29.86,South,182,4.0,5.0,87,0.00,,,0.00,,2013-04-10 11:12:00,
2013-04-10 07:22:00,65.0,61.0,29.86,South,182,4.0,5.0,87,0.00,,,0.00,,2013-04-10 11:22:00,
2013-04-10 07:32:00,69.0,63.0,29.86,SSW,206,0.0,10.0,80,0.00,,,0.00,,2013-04-10 11:32:00,
2013-04-10 07:42:00,69.0,63.0,29.86,SSW,206,0.0,10.0,80,0.00,,,0.00,,2013-04-10 11:42:00,
2013-04-10 07:53:00,70.0,63.0,29.86,SSE,167,3.0,10.0,79,0.00,,,0.00,,2013-04-10 11:53:00,
2013-04-10 08:03:00,70.0,63.0,29.86,SSW,199,3.0,10.0,79,0.00,,,0.00,,2013-04-10 12:03:00,
2013-04-10 08:12:00,70.0,63.0,29.86,SSW,199,3.0,10.0,79,0.00,,,0.00,,2013-04-10 12:12:00,
2013-04-10 08:23:00,70.0,63.0,29.87,SW,222,3.0,10.0,79,0.00,,,0.00,,2013-04-10 12:23:00,
2013-04-10 08:33:00,70.0,63.0,29.88,South,173,8.0,12.0,79,0.00,,,0.00,,2013-04-10 12:33:00,
2013-04-10 08:42:00,70.0,63.0,29.88,South,173,8.0,12.0,79,0.00,,,0.00,,2013-04-10 12:42:00,
2013-04-10 08:52:00,70.0,63.0,29.88,South,173,8.0,12.0,79,0.00,,,0.00,,2013-04-10 12:52:00,
2013-04-10 09:02:00,71.0,64.0,29.88,SW,216,10.0,16.0,79,0.00,,,0.00,,2013-04-10 13:02:00,
2013-04-10 09:12:00,71.0,64.0,29.88,SW,216,10.0,16.0,79,0.00,,,0.00,,2013-04-10 13:12:00,
2013-04-10 09:23:00,71.0,64.0,29.88,SW,216,10.0,16.0,79,0.00,,,0.00,,2013-04-10 13:23:00,
2013-04-10 09:32:00,71.0,64.0,29.89,SW,231,4.0,12.0,79,0.00,,,0.00,,2013-04-10 13:32:00,
2013-04-10 09:43:00,71.0,64.0,29.89,SW,231,4.0,12.0,79,0.00,,,0.00,,2013-04-10 13:43:00,
2013-04-10 09:53:00,71.0,64.0,29.89,SW,231,4.0,12.0,79,0.00,,,0.00,,2013-04-10 13:53:00,
2013-04-10 10:02:00,72.0,65.0,29.88,SW,220,8.0,13.0,78,0.00,,,0.00,,2013-04-10 14:02:00,
2013-04-10 10:12:00,72.0,65.0,29.88,SW,220,8.0,13.0,78,0.00,,,0.00,,2013-04-10 14:12:00,
2013-04-10 10:22:00,72.0,64.0,29.88,SSW,207,5.0,16.0,77,0.00,,,0.00,,2013-04-10 14:22:00,
2013-04-10 10:32:00,73.0,65.0,29.88,SW,220,4.0,15.0,77,0.00,,,0.00,,2013-04-10 14:32:00,
2013-04-10 10:42:00,73.0,65.0,29.88,SW,220,4.0,15.0,77,0.00,,,0.00,,2013-04-10 14:42:00,
2013-04-10 10:52:00,73.0,65.0,29.87,WSW,239,9.0,15.0,77,0.00,,,0.00,,2013-04-10 14:52:00,
2013-04-10 11:02:00,74.0,66.0,29.86,WSW,245,7.0,15.0,75,0.00,,,0.00,,2013-04-10 15:02:00,
2013-04-10 11:12:00,74.0,66.0,29.86,WSW,245,7.0,15.0,75,0.00,,,0.00,,2013-04-10 15:12:00,
2013-04-10 11:22:00,74.0,66.0,29.86,WSW,245,7.0,15.0,75,0.00,,,0.00,,2013-04-10 15:22:00,
2013-04-10 11:32:00,76.0,67.0,29.87,SW,228,5.0,16.0,73,0.00,,,0.00,,2013-04-10 15:32:00,
2013-04-10 11:42:00,76.0,67.0,29.87,SW,228,5.0,16.0,73,0.00,,,0.00,,2013-04-10 15:42:00,
2013-04-10 11:52:00,76.0,67.0,29.87,SW,228,5.0,16.0,73,0.00,,,0.00,,2013-04-10 15:52:00,
2013-04-10 12:03:00,78.0,67.0,29.87,SSW,193,5.0,19.0,69,0.00,,,0.00,,2013-04-10 16:03:00,
2013-04-10 12:13:00,78.0,67.0,29.87,SSW,193,5.0,19.0,69,0.00,,,0.00,,2013-04-10 16:13:00,
2013-04-10 12:23:00,79.0,68.0,29.87,WSW,242,10.0,19.0,68,0.00,,,0.00,,2013-04-10 16:23:00,
2013-04-10 12:33:00,80.0,68.0,29.88,WSW,247,10.0,17.0,66,0.00,,,0.00,,2013-04-10 16:33:00,
2013-04-10 12:43:00,80.0,68.0,29.88,WSW,247,10.0,17.0,66,0.00,,,0.00,,2013-04-10 16:43:00,
2013-04-10 12:52:00,80.0,68.0,29.88,WSW,253,10.0,19.0,66,0.00,,,0.00,,2013-04-10 16:52:00,
2013-04-10 13:02:00,80.0,67.0,29.88,WSW,254,7.0,19.0,65,0.00,,,0.00,,2013-04-10 17:02:00,
2013-04-10 13:12:00,80.0,67.0,29.88,WSW,254,7.0,19.0,65,0.00,,,0.00,,2013-04-10 17:12:00,
2013-04-10 13:22:00,80.0,67.0,29.88,WSW,254,7.0,19.0,65,0.00,,,0.00,,2013-04-10 17:22:00,
2013-04-10 13:33:00,81.0,67.0,29.86,SSW,210,6.0,13.0,63,0.00,,,0.00,,2013-04-10 17:33:00,
2013-04-10 13:43:00,81.0,67.0,29.86,SSW,210,6.0,13.0,63,0.00,,,0.00,,2013-04-10 17:43:00,
2013-04-10 13:53:00,81.0,67.0,29.86,SSW,210,6.0,13.0,63,0.00,,,0.00,,2013-04-10 17:53:00,
2013-04-10 14:03:00,82.0,68.0,29.85,WSW,249,7.0,15.0,63,0.00,,,0.00,,2013-04-10 18:03:00,
2013-04-10 14:12:00,82.0,68.0,29.85,WSW,249,7.0,15.0,63,0.00,,,0.00,,2013-04-10 18:12:00,
2013-04-10 14:23:00,82.0,68.0,29.84,WSW,241,3.0,15.0,62,0.00,,,0.00,,2013-04-10 18:23:00,
2013-04-10 14:33:00,82.0,67.0,29.84,SW,231,3.0,17.0,60,0.00,,,0.00,,2013-04-10 18:33:00,
2013-04-10 14:42:00,82.0,67.0,29.84,SW,231,3.0,17.0,60,0.00,,,0.00,,2013-04-10 18:42:00,
2013-04-10 14:52:00,82.0,67.0,29.83,South,170,3.0,17.0,61,0.00,,,0.00,,2013-04-10 18:52:00,
2013-04-10 15:03:00,83.0,67.0,29.83,SSW,204,6.0,17.0,58,0.00,,,0.00,,2013-04-10 19:03:00,
2013-04-10 15:12:00,83.0,67.0,29.83,SSW,204,6.0,17.0,58,0.00,,,0.00,,2013-04-10 19:12:00,
2013-04-10 15:22:00,83.0,67.0,29.83,SSW,204,6.0,17.0,58,0.00,,,0.00,,2013-04-10 19:22:00,
2013-04-10 15:33:00,84.0,67.0,29.81,SSW,212,6.0,16.0,56,0.00,,,0.00,,2013-04-10 19:33:00,
2013-04-10 15:42:00,84.0,67.0,29.81,SSW,212,6.0,16.0,56,0.00,,,0.00,,2013-04-10 19:42:00,
2013-04-10 15:53:00,84.0,67.0,29.81,SSW,212,6.0,16.0,56,0.00,,,0.00,,2013-04-10 19:53:00,
2013-04-10 16:03:00,84.0,66.0,29.80,WSW,244,5.0,16.0,54,0.00,,,0.00,,2013-04-10 20:03:00,
2013-04-10 16:12:00,84.0,66.0,29.80,WSW,244,5.0,16.0,54,0.00,,,0.00,,2013-04-10 20:12:00,
2013-04-10 16:23:00,84.0,66.0,29.80,WSW,244,5.0,16.0,54,0.00,,,0.00,,2013-04-10 20:23:00,
2013-04-10 16:33:00,81.0,65.0,29.79,SSW,212,10.0,14.0,59,0.00,,,0.00,,2013-04-10 20:33:00,
2013-04-10 16:43:00,81.0,65.0,29.79,SSW,212,10.0,14.0,59,0.00,,,0.00,,2013-04-10 20:43:00,
2013-04-10 16:52:00,81.0,65.0,29.79,SSW,212,10.0,14.0,59,0.00,,,0.00,,2013-04-10 20:52:00,
2013-04-10 17:03:00,80.0,65.0,29.77,SW,221,3.0,14.0,61,0.00,,,0.00,,2013-04-10 21:03:00,
2013-04-10 17:12:00,80.0,65.0,29.77,SW,221,3.0,14.0,61,0.00,,,0.00,,2013-04-10 21:12:00,
2013-04-10 17:22:00,80.0,65.0,29.76,SW,228,11.0,16.0,60,0.00,,,0.00,,2013-04-10 21:22:00,
2013-04-10 17:33:00,81.0,65.0,29.75,SSW,208,6.0,13.0,59,0.00,,,0.00,,2013-04-10 21:33:00,
2013-04-10 17:42:00,81.0,65.0,29.75,SSW,208,6.0,13.0,59,0.00,,,0.00,,2013-04-10 21:42:00,
2013-04-10 17:53:00,81.0,65.0,29.75,SSW,208,6.0,13.0,59,0.00,,,0.00,,2013-04-10 21:53:00,
2013-04-10 18:03:00,82.0,66.0,29.75,SW,222,4.0,15.0,58,0.00,,,0.00,,2013-04-10 22:03:00,
2013-04-10 18:13:00,82.0,66.0,29.75,South,179,8.0,16.0,58,0.00,,,0.00,,2013-04-10 22:13:00,
2013-04-10 18:23:00,82.0,66.0,29.75,South,179,8.0,16.0,58,0.00,,,0.00,,2013-04-10 22:23:00,
2013-04-10 18:33:00,82.0,66.0,29.74,SSE,166,5.0,15.0,58,0.00,,,0.00,,2013-04-10 22:33:00,
2013-04-10 18:42:00,82.0,66.0,29.74,SSE,166,5.0,15.0,58,0.00,,,0.00,,2013-04-10 22:42:00,
2013-04-10 18:52:00,82.0,66.0,29.74,SSE,166,5.0,15.0,58,0.00,,,0.00,,2013-04-10 22:52:00,
2013-04-10 19:02:00,81.0,65.0,29.72,SW,214,3.0,15.0,59,0.00,,,0.00,,2013-04-10 23:02:00,
2013-04-10 19:12:00,81.0,65.0,29.72,SW,214,3.0,15.0,59,0.00,,,0.00,,2013-04-10 23:12:00,
2013-04-10 19:22:00,81.0,65.0,29.72,SW,214,3.0,15.0,59,0.00,,,0.00,,2013-04-10 23:22:00,
2013-04-10 19:33:00,80.0,64.0,29.72,South,184,3.0,15.0,58,0.00,,,0.00,,2013-04-10 23:33:00,
2013-04-10 19:42:00,80.0,64.0,29.72,South,184,3.0,15.0,58,0.00,,,0.00,,2013-04-10 23:42:00,
2013-04-10 19:53:00,80.0,64.0,29.71,SSW,212,1.0,15.0,59,0.00,,,0.00,,2013-04-10 23:53:00,
2013-04-10 20:02:00,79.0,63.0,29.71,ESE,119,3.0,15.0,59,0.00,,,0.00,,2013-04-11 00:02:00,
2013-04-10 20:12:00,79.0,63.0,29.71,ESE,119,3.0,15.0,59,0.00,,,0.00,,2013-04-11 00:12:00,
2013-04-10 20:22:00,79.0,63.0,29.71,ESE,119,3.0,15.0,59,0.00,,,0.00,,2013-04-11 00:22:00,
2013-04-10 20:32:00,78.0,63.0,29.70,SSW,195,0.0,6.0,60,0.00,,,0.00,,2013-04-11 00:32:00,
2013-04-10 20:42:00,78.0,63.0,29.70,South,181,0.0,6.0,61,0.00,,,0.00,,2013-04-11 00:42:00,
2013-04-10 20:53:00,78.0,63.0,29.70,South,181,0.0,6.0,61,0.00,,,0.00,,2013-04-11 00:53:00,
2013-04-10 21:02:00,77.0,63.0,29.71,South,177,2.0,9.0,61,0.00,,,0.00,,2013-04-11 01:02:00,
2013-04-10 21:12:00,77.0,63.0,29.70,SE,143,1.0,9.0,62,0.00,,,0.00,,2013-04-11 01:12:00,
2013-04-10 21:22:00,77.0,63.0,29.70,SE,143,1.0,9.0,62,0.00,,,0.00,,2013-04-11 01:22:00,
2013-04-10 21:32:00,76.0,62.0,29.69,SSE,150,5.0,5.0,63,0.00,,,0.00,,2013-04-11 01:32:00,
2013-04-10 21:42:00,76.0,62.0,29.69,SSE,150,5.0,5.0,63,0.00,,,0.00,,2013-04-11 01:42:00,
2013-04-10 21:52:00,75.0,62.0,29.69,SSE,161,0.0,5.0,64,0.00,,,0.00,,2013-04-11 01:52:00,
2013-04-10 22:03:00,74.0,62.0,29.68,SSE,168,0.0,5.0,66,0.00,,,0.00,,2013-04-11 02:03:00,
2013-04-10 22:12:00,74.0,62.0,29.68,SSE,168,0.0,5.0,66,0.00,,,0.00,,2013-04-11 02:12:00,
2013-04-10 22:22:00,74.0,62.0,29.68,SSE,168,0.0,5.0,66,0.00,,,0.00,,2013-04-11 02:22:00,
2013-04-10 22:42:00,74.0,62.0,29.68,SSE,168,0.0,5.0,66,0.00,,,0.00,,2013-04-11 02:42:00,
2013-04-10 22:53:00,74.0,62.0,29.70,SW,223,1.0,4.0,66,0.00,,,0.00,,2013-04-11 02:53:00,
2013-04-10 23:02:00,73.0,61.0,29.70,SSW,193,2.0,4.0,66,0.00,,,0.00,,2013-04-11 03:02:00,
2013-04-10 23:12:00,73.0,61.0,29.70,SSE,162,0.0,4.0,67,0.00,,,0.00,,2013-04-11 03:12:00,
2013-04-10 23:22:00,73.0,61.0,29.70,SSE,162,0.0,4.0,67,0.00,,,0.00,,2013-04-11 03:22:00,
2013-04-10 23:33:00,72.0,61.0,29.70,ESE,115,1.0,3.0,68,0.00,,,0.00,,2013-04-11 03:33:00,
2013-04-10 23:43:00,72.0,61.0,29.70,ESE,115,1.0,3.0,68,0.00,,,0.00,,2013-04-11 03:43:00,
2013-04-10 23:53:00,72.0,61.0,29.70,ESE,115,1.0,3.0,68,0.00,,,0.00,,2013-04-11 03:53:00,